{"data":{"norad_id":46460,"epoch":"2026-05-25T04:19:47.398080Z","epoch_age_seconds":56523,"freshness":"FRESH","line1":"1 46460U 20065G   26145.18040970  .00067441  00000+0  70350-3 0  9999","line2":"2 46460  97.2251 197.6458 0007985  85.3631 274.8540 15.64273089316288","mean_motion":15.64273089,"eccentricity":0.0007985,"inclination_deg":97.2251,"raan_deg":197.6458,"arg_perigee_deg":85.3631,"mean_anomaly_deg":274.854,"bstar":0.0007035,"rev_number":31628,"period_min":92.055537497008,"perigee_km":369.93751087192,"apogee_km":380.72279791748,"semimajor_km":6753.4671543947,"source":"CELESTRAK","updated_at":"2026-05-25T13:37:56.321671Z"}}